Change the Weather History Date:

Wednesday, November 14, 2012

  Actual Average Record
Temperature  
Mean Temperature 37 °F -  
Max Temperature 44 °F 42 °F 67 °F (1958)
Min Temperature 30 °F 27 °F 11 °F (1986)
Degree Days  
Heating Degree Days 28    
Moisture  
Dew Point 27 °F    
Average Humidity 67    
Maximum Humidity 86    
Minimum Humidity 46    
Precipitation  
Precipitation 0.00 in - - ()
Sea Level Pressure  
Sea Level Pressure 30.37 in    
Wind  
Wind Speed 8 mph (SSW)    
Max Wind Speed 20 mph    
Max Gust Speed 25 mph    
Visibility 10 miles    
Events      
Averages and records for this station are not official NWS values.
T = Trace of Precipitation, MM = Missing Value Source: NWS Daily Summary

Daily Weather History Graph

Daily Weather History Graph

Search for Another Location

Airport or City:

Trip Planner

Search our weather history database for the weather conditions in past years. The results will help you decide how hot, cold, wet, or windy it might be!

Date:

Astronomy

Nov. 14, 2012 Rise Set
Actual Time 6:47 AM CST 4:21 PM CST
Civil Twilight 6:16 AM CST 4:53 PM CST
Nautical Twilight 5:40 AM CST 5:29 PM CST
Astronomical Twilight 5:05 AM CST 6:03 PM CST
Moon 7:39 AM CST (11/14) 5:07 PM CST (11/14)
Length of Visible Light 10h 37m
Length of Day
9h 33m
New Moon, 1% of the Moon is Illuminated
Nov 14
New Moon
Nov 20
First Quarter
Nov 28
Full
Dec 6
Last Quarter
Dec 13
New

Hourly Weather History & Observations

Time (CST) Temp. Windchill Dew Point Humidity Pressure Visibility Wind Dir Wind Speed Gust Speed Precip Events Conditions
12:15 AM 30.2 °F 25.4 °F 24.8 °F 80% 30.43 in 10.0 mi WSW 4.6 mph - N/A   Clear
12:35 AM 30.2 °F 24.3 °F 26.6 °F 86% 30.43 in 10.0 mi WSW 5.8 mph - N/A   Clear
12:55 AM 30.2 °F 23.4 °F 26.6 °F 86% 30.44 in 10.0 mi WSW 6.9 mph - N/A   Clear
1:15 AM 30.2 °F 23.4 °F 24.8 °F 80% 30.44 in 10.0 mi WSW 6.9 mph - N/A   Clear
1:35 AM 30.2 °F 24.3 °F 24.8 °F 80% 30.44 in 10.0 mi WSW 5.8 mph - N/A   Clear
1:55 AM 30.2 °F 23.4 °F 24.8 °F 80% 30.44 in 10.0 mi SW 6.9 mph - N/A   Scattered Clouds
2:15 AM 30.2 °F 24.3 °F 23.0 °F 75% 30.44 in 10.0 mi WSW 5.8 mph - N/A   Scattered Clouds
2:35 AM 30.2 °F 24.3 °F 23.0 °F 75% 30.45 in 10.0 mi SW 5.8 mph - N/A   Partly Cloudy
2:55 AM 30.2 °F 24.3 °F 23.0 °F 75% 30.44 in 10.0 mi SW 5.8 mph - N/A   Clear
3:15 AM 30.2 °F 23.4 °F 21.2 °F 69% 30.44 in 10.0 mi SW 6.9 mph - N/A   Scattered Clouds
3:35 AM 30.2 °F 24.3 °F 23.0 °F 75% 30.44 in 10.0 mi SW 5.8 mph - N/A   Overcast
3:55 AM 30.2 °F 24.3 °F 24.8 °F 80% 30.43 in 10.0 mi SW 5.8 mph - N/A   Overcast
4:15 AM 30.2 °F 24.3 °F 24.8 °F 80% 30.44 in 10.0 mi SW 5.8 mph - N/A   Overcast
4:35 AM 32.0 °F 26.4 °F 23.0 °F 69% 30.44 in 10.0 mi SW 5.8 mph - N/A   Overcast
4:55 AM 32.0 °F 27.5 °F 24.8 °F 75% 30.44 in 10.0 mi SW 4.6 mph - N/A   Overcast
5:15 AM 33.8 °F 30.8 °F 24.8 °F 70% 30.43 in 10.0 mi SW 3.5 mph - N/A   Overcast
5:35 AM 33.8 °F 30.8 °F 24.8 °F 70% 30.43 in 10.0 mi WSW 3.5 mph - N/A   Overcast
5:55 AM 33.8 °F 30.8 °F 24.8 °F 70% 30.43 in 10.0 mi SW 3.5 mph - N/A   Overcast
6:15 AM 32.0 °F 28.7 °F 26.6 °F 80% 30.43 in 10.0 mi South 3.5 mph - N/A   Overcast
6:35 AM 33.8 °F 30.8 °F 26.6 °F 75% 30.43 in 10.0 mi South 3.5 mph - N/A   Overcast
6:55 AM 33.8 °F 30.8 °F 26.6 °F 75% 30.42 in 10.0 mi SSW 3.5 mph - N/A   Overcast
7:15 AM 33.8 °F 28.6 °F 26.6 °F 75% 30.42 in 10.0 mi South 5.8 mph - N/A   Mostly Cloudy
7:35 AM 33.8 °F 29.6 °F 26.6 °F 75% 30.43 in 10.0 mi South 4.6 mph - N/A   Mostly Cloudy
7:55 AM 35.6 °F 30.7 °F 28.4 °F 75% 30.43 in 10.0 mi South 5.8 mph - N/A   Mostly Cloudy
8:15 AM 35.6 °F 29.2 °F 28.4 °F 75% 30.43 in 10.0 mi South 8.1 mph - N/A   Mostly Cloudy
8:35 AM 35.6 °F 29.2 °F 26.6 °F 70% 30.43 in 10.0 mi South 8.1 mph - N/A   Overcast
8:55 AM 35.6 °F 29.2 °F 26.6 °F 70% 30.42 in 10.0 mi South 8.1 mph - N/A   Overcast
9:15 AM 37.4 °F 29.8 °F 26.6 °F 65% 30.42 in 10.0 mi South 11.5 mph 16.1 mph N/A   Overcast
9:35 AM 37.4 °F 30.3 °F 26.6 °F 65% 30.41 in 10.0 mi South 10.4 mph - N/A   Overcast
9:55 AM 37.4 °F 30.8 °F 26.6 °F 65% 30.41 in 10.0 mi South 9.2 mph - N/A   Overcast
10:15 AM 37.4 °F 30.8 °F 26.6 °F 65% 30.41 in 10.0 mi South 9.2 mph - N/A   Mostly Cloudy
10:35 AM 39.2 °F 34.2 °F 26.6 °F 61% 30.40 in 10.0 mi South 6.9 mph - N/A   Overcast
10:55 AM 42.8 °F 34.8 °F 26.6 °F 53% 30.40 in 10.0 mi South 17.3 mph 23.0 mph N/A   Overcast
11:15 AM 42.8 °F 35.1 °F 24.8 °F 49% 30.38 in 10.0 mi SSW 16.1 mph 19.6 mph N/A   Overcast
11:35 AM 42.8 °F 34.8 °F 24.8 °F 49% 30.38 in 10.0 mi South 17.3 mph 21.9 mph N/A   Scattered Clouds
11:55 AM 42.8 °F 35.4 °F 24.8 °F 49% 30.37 in 10.0 mi SSW 15.0 mph 25.3 mph N/A   Clear
12:15 PM 44.6 °F 36.6 °F 24.8 °F 46% 30.37 in 10.0 mi SSW 19.6 mph 24.2 mph N/A   Scattered Clouds
12:35 PM 44.6 °F 38.4 °F 24.8 °F 46% 30.36 in 10.0 mi SSW 12.7 mph 25.3 mph N/A   Overcast
12:55 PM 42.8 °F 35.4 °F 23.0 °F 46% 30.36 in 10.0 mi SSW 15.0 mph 24.2 mph N/A   Overcast
1:15 PM 42.8 °F 34.8 °F 24.8 °F 49% 30.35 in 10.0 mi SSW 17.3 mph 24.2 mph N/A   Overcast
1:35 PM 42.8 °F 35.4 °F 24.8 °F 49% 30.34 in 10.0 mi South 15.0 mph 23.0 mph N/A   Overcast
1:55 PM 42.8 °F 36.6 °F 24.8 °F 49% 30.34 in 10.0 mi SSW 11.5 mph 21.9 mph N/A   Overcast
2:15 PM 42.8 °F 35.8 °F 24.8 °F 49% 30.33 in 10.0 mi SSW 13.8 mph 24.2 mph N/A   Overcast
2:35 PM 42.8 °F 36.2 °F 24.8 °F 49% 30.33 in 10.0 mi SSW 12.7 mph 23.0 mph N/A   Overcast
2:55 PM 42.8 °F 35.1 °F 26.6 °F 53% 30.33 in 10.0 mi SSW 16.1 mph - N/A   Overcast
3:15 PM 42.8 °F 36.2 °F 24.8 °F 49% 30.33 in 10.0 mi SSW 12.7 mph 21.9 mph N/A   Partly Cloudy
3:35 PM 42.8 °F 37.0 °F 26.6 °F 53% 30.33 in 10.0 mi SSW 10.4 mph - N/A   Clear
3:55 PM 42.8 °F 37.5 °F 28.4 °F 57% 30.33 in 10.0 mi South 9.2 mph 16.1 mph N/A   Clear
4:15 PM 42.8 °F 38.0 °F 28.4 °F 57% 30.33 in 10.0 mi South 8.1 mph - N/A   Clear
4:35 PM 41.0 °F 35.8 °F 28.4 °F 61% 30.33 in 10.0 mi South 8.1 mph - N/A   Clear
4:55 PM 41.0 °F 35.2 °F 30.2 °F 65% 30.32 in 10.0 mi South 9.2 mph 16.1 mph N/A   Clear
5:15 PM 41.0 °F 34.7 °F 30.2 °F 65% 30.32 in 10.0 mi South 10.4 mph 17.3 mph N/A   Clear
5:35 PM 39.2 °F 32.5 °F 30.2 °F 70% 30.32 in 10.0 mi South 10.4 mph - N/A   Clear
5:55 PM 39.2 °F 32.0 °F 30.2 °F 70% 30.32 in 10.0 mi SSW 11.5 mph 16.1 mph N/A   Clear
6:15 PM 39.2 °F 32.5 °F 30.2 °F 70% 30.32 in 10.0 mi South 10.4 mph 17.3 mph N/A   Clear
6:35 PM 39.2 °F 33.0 °F 30.2 °F 70% 30.32 in 10.0 mi SSW 9.2 mph 18.4 mph N/A   Clear
6:55 PM 39.2 °F 33.6 °F 30.2 °F 70% 30.32 in 10.0 mi SSW 8.1 mph - N/A   Clear
7:15 PM 39.2 °F 33.6 °F 30.2 °F 70% 30.32 in 10.0 mi SSW 8.1 mph - N/A   Clear
7:35 PM 37.4 °F 31.4 °F 30.2 °F 75% 30.32 in 10.0 mi SSW 8.1 mph - N/A   Clear
7:55 PM 37.4 °F 31.4 °F 30.2 °F 75% 30.32 in 10.0 mi SSW 8.1 mph - N/A   Clear
8:15 PM 37.4 °F 30.8 °F 30.2 °F 75% 30.32 in 10.0 mi SSW 9.2 mph - N/A   Clear
8:35 PM 37.4 °F 30.8 °F 30.2 °F 75% 30.32 in 10.0 mi SSW 9.2 mph - N/A   Clear
8:55 PM 39.2 °F 33.6 °F 30.2 °F 70% 30.32 in 10.0 mi SSW 8.1 mph - N/A   Clear
9:15 PM 39.2 °F 32.5 °F 30.2 °F 70% 30.31 in 10.0 mi SSW 10.4 mph - N/A   Scattered Clouds
9:35 PM 39.2 °F 31.6 °F 30.2 °F 70% 30.31 in 10.0 mi SW 12.7 mph - N/A   Partly Cloudy
9:55 PM 39.2 °F 32.0 °F 30.2 °F 70% 30.31 in 10.0 mi SW 11.5 mph - N/A   Clear
10:15 PM 39.2 °F 32.0 °F 30.2 °F 70% 30.31 in 10.0 mi SW 11.5 mph - N/A   Clear
10:35 PM 39.2 °F 31.6 °F 30.2 °F 70% 30.30 in 10.0 mi SW 12.7 mph 17.3 mph N/A   Scattered Clouds
10:55 PM 39.2 °F 31.6 °F 30.2 °F 70% 30.30 in 10.0 mi SW 12.7 mph 18.4 mph N/A   Overcast
11:15 PM 39.2 °F 32.5 °F 30.2 °F 70% 30.30 in 10.0 mi SW 10.4 mph 16.1 mph N/A   Mostly Cloudy
11:35 PM 39.2 °F 32.5 °F 28.4 °F 65% 30.30 in 10.0 mi SW 10.4 mph - N/A   Scattered Clouds
11:55 PM 39.2 °F 33.0 °F 30.2 °F 70% 30.30 in 10.0 mi SW 9.2 mph - N/A   Clear